EHI
29 34 38 40 43 48 53 52 46 40 38 35 28 22 20 20 18 17 19 19 18 15 12 10 10 13 14 14 15 15 13 11 10 8 7 8 10 11 12 14 15 15 13
32 37 41 41 43 48 52 52 47 42 38 34 27 21 19 19 17 18 20 19 17 13 11 11 11 12 14 14 15 16 15 14 12 10 8 8 9 11 12 14 16 16 15
33 39 44 43 41 44 47 50 51 46 38 33 27 21 18 16 16 18 19 19 17 15 14 13 12 12 14 16 17 18 18 18 17 14 10 8 9 11 14 14 15 18 20
31 36 41 42 40 42 44 50 55 49 38 31 28 24 19 15 14 17 20 20 19 17 17 15 13 14 16 19 21 21 21 22 20 17 12 10 10 12 14 13 14 17 19
26 30 36 40 41 42 44 50 56 51 39 31 29 26 22 19 16 17 20 21 20 19 17 16 16 17 18 19 21 23 23 22 20 17 14 11 11 12 12 10 10 12 14
20 25 33 39 43 43 44 49 53 50 40 33 30 28 25 22 20 19 21 21 21 20 19 19 20 20 18 17 19 22 22 20 18 15 13 12 11 11 11 9 7 8 9
18 24 32 38 43 46 48 50 51 48 41 34 31 29 27 23 20 20 20 20 22 23 22 22 23 22 19 17 17 19 18 16 15 12 11 12 12 12 11 9 7 6 5
18 23 29 35 42 49 52 53 52 48 40 32 31 32 30 25 21 19 18 18 21 24 25 24 23 22 19 18 18 17 15 13 12 9 9 9 10 11 11 10 8 6 3
16 20 26 32 40 47 51 52 52 48 39 31 28 31 31 27 22 18 16 16 18 22 25 24 21 20 18 18 17 16 14 12 10 8 7 7 7 9 10 10 9 5 2
15 19 25 31 38 44 48 49 49 46 39 31 27 28 29 26 21 18 16 15 17 22 23 21 20 19 18 17 16 14 13 11 10 8 7 7 6 5 7 8 6 3 1
16 19 25 30 36 41 44 44 44 42 36 29 26 27 27 24 21 19 17 18 21 23 22 20 17 16 16 16 15 13 12 9 8 6 5 5 5 3 3 3 2 1 0
16 19 23 28 34 38 39 40 40 37 32 27 26 27 27 26 24 21 20 21 23 23 21 18 15 14 15 15 14 13 12 10 7 6 4 3 2 3 3 2 1 0 0
17 20 24 29 34 36 37 37 37 34 31 29 28 28 29 28 26 23 22 22 22 21 18 17 15 14 14 14 13 13 12 10 9 8 5 3 2 3 5 5 3 1 1
19 23 28 32 37 39 39 37 35 33 32 32 31 31 31 30 26 24 22 22 20 18 17 16 16 15 14 14 12 11 9 9 10 9 7 4 3 4 6 5 4 4 4
20 25 31 36 39 41 42 39 36 34 35 35 34 34 34 31 28 26 23 22 19 17 16 17 16 14 13 12 10 8 8 8 9 10 7 3 1 3 3 3 3 4 5
22 28 35 39 40 41 42 41 39 38 37 36 35 35 35 32 30 27 25 23 20 17 17 17 15 13 10 8 6 6 8 9 10 10 7 3 1 1 1 1 1 2 2
29 35 41 41 41 41 41 41 40 38 36 34 33 34 34 33 31 28 26 24 21 18 17 16 15 12 8 4 2 5 8 9 10 10 8 5 2 2 2 2 1 1 1
34 41 44 41 39 40 41 40 39 37 35 33 32 33 33 33 32 29 27 24 21 18 16 14 14 12 8 2 0 3 8 9 8 7 7 7 5 2 2 3 3 2 2
36 39 40 38 38 40 40 40 40 38 34 33 33 32 32 32 30 28 26 23 21 18 14 12 12 11 8 3 0 3 8 10 8 6 5 6 5 2 1 2 3 3 3
35 35 35 35 38 40 40 40 40 39 36 34 34 33 32 31 29 26 24 22 20 17 14 11 10 9 6 2 0 3 8 11 9 7 6 4 3 1 0 1 3 2 1
35 34 35 36 38 40 41 40 40 40 38 36 34 32 31 30 28 25 23 22 20 19 16 13 10 8 5 2 0 2 6 9 9 8 7 4 1 0 0 0 1 1 0
39 38 37 36 36 39 41 41 40 39 38 36 33 32 30 27 25 23 23 22 22 21 19 16 12 8 5 3 1 1 3 5 6 7 6 3 1 0 0 0 0 0 0
42 41 38 35 35 37 40 41 40 38 35 33 31 31 29 24 21 21 22 22 22 21 19 17 13 8 6 4 2 1 1 1 2 3 3 1 0 0 0 0 0 0 0
44 43 40 36 34 35 37 38 37 35 31 28 28 28 27 23 21 20 19 19 18 17 15 14 10 7 6 5 4 3 1 1 1 1 1 1 1 1 1 1 1 1 1
43 42 39 36 33 32 34 34 33 31 28 25 24 24 23 21 20 17 15 14 13 12 10 9 8 5 3 3 3 4 3 2 2 2 2 2 2 2 2 2 2 2 2
43 40 37 34 30 29 31 32 32 29 25 23 22 21 19 18 17 15 12 9 9 8 7 7 6 4 1 1 2 3 4 3 3 3 3 3 3 3 3 3 3 3 3
Wind_Speed
8 8 8 9 9 7 6 5 5 4 2 2 2 2 1 1 2 2 2 2 1 1 1 1 1 1 1 1 2 1 2 2 2 2 2 2 2 2 2 2 2 3 3
9 9 8 8 8 7 6 6 5 4 3 2 2 1 1 1 2 1 2 2 1 1 1 1 0 1 1 1 1 1 2 2 2 1 2 2 1 1 2 2 2 3 2
10 10 10 9 8 8 7 6 5 5 3 3 2 1 1 0 2 2 1 2 2 2 1 1 1 0 0 0 1 1 1 2 2 1 1 1 1 2 1 1 1 1 2
9 10 10 10 9 9 8 6 6 5 3 3 2 2 2 1 1 1 2 2 2 2 2 1 1 0 0 0 1 1 1 1 2 1 1 1 1 1 1 2 1 1 1
10 10 10 9 9 8 8 8 7 5 4 3 2 1 1 1 1 1 2 1 2 2 1 2 1 1 0 0 1 1 1 1 2 2 1 1 1 1 1 2 2 1 0
10 10 10 10 9 8 8 8 7 6 4 3 3 2 1 1 1 1 1 1 1 1 1 1 0 1 0 1 0 1 1 1 2 2 2 1 1 1 1 2 2 1 1
9 10 10 9 8 9 8 9 8 6 5 4 3 2 1 1 1 1 1 1 1 1 1 0 0 0 1 1 1 1 1 1 2 2 2 2 2 1 1 1 2 2 1
9 9 9 8 8 8 8 8 9 7 5 5 3 3 2 1 1 0 0 0 1 1 2 1 0 0 1 1 1 1 1 1 2 3 3 2 2 1 2 1 1 1 1
9 9 9 8 8 9 8 8 8 7 5 5 4 3 2 1 1 1 0 0 1 1 2 1 1 1 1 1 1 1 1 1 2 2 3 3 2 2 2 1 1 1 1
9 9 7 6 7 8 8 8 8 7 6 5 3 3 2 1 2 2 1 0 1 2 2 2 1 1 1 1 1 1 1 1 1 1 2 2 3 3 2 2 2 1 1
8 8 8 7 7 7 8 8 8 7 6 5 4 4 3 2 2 2 2 1 1 1 1 1 1 1 1 2 1 2 1 1 2 2 2 2 2 2 3 3 2 1 1
8 7 8 8 8 7 7 7 7 7 6 5 5 4 4 3 2 2 2 2 1 1 1 1 1 1 2 2 2 2 2 1 2 2 2 3 3 3 2 2 2 2 1
8 8 8 7 7 6 6 6 5 6 6 6 5 4 3 2 2 2 2 1 1 1 1 1 1 1 1 1 2 2 2 2 1 2 2 2 3 3 3 3 2 2 2
6 7 7 7 6 6 6 6 5 5 5 5 5 4 3 3 2 2 2 1 1 1 1 1 1 1 1 2 2 3 2 2 2 1 1 1 2 2 3 3 3 3 3
6 7 7 7 7 6 6 6 5 5 5 5 5 5 4 3 2 2 2 2 2 1 1 1 1 1 1 3 4 3 2 2 2 2 1 1 1 1 1 2 2 3 2
7 7 7 7 7 7 6 6 6 5 5 5 5 5 4 4 3 3 3 2 2 1 1 1 1 2 2 4 4 4 3 3 2 3 2 1 1 0 1 2 2 2 2
5 6 6 6 6 6 6 6 6 5 5 5 5 5 5 5 4 3 3 2 2 2 1 1 1 2 3 4 4 4 3 3 2 3 3 3 3 3 3 2 2 2 3
5 6 5 5 6 5 6 5 6 6 5 5 5 5 5 5 4 4 3 3 2 2 1 1 1 1 2 2 2 4 3 2 2 2 2 2 3 4 5 4 3 2 1
5 5 5 5 5 5 5 5 5 6 6 6 6 5 5 5 5 4 3 3 2 2 2 2 1 1 1 1 1 2 2 1 2 2 2 1 2 4 5 4 3 3 3
4 4 5 5 5 4 4 5 6 6 6 6 5 5 5 5 5 4 4 3 2 2 2 2 1 1 2 3 2 1 2 2 2 1 0 2 2 3 5 3 3 4 3
4 4 4 4 4 4 4 5 5 5 5 5 5 4 4 4 4 4 3 3 3 3 2 2 3 3 3 4 4 2 1 2 3 2 1 1 2 1 3 3 3 4 5
4 3 3 3 3 4 4 5 5 4 4 5 5 5 4 4 4 4 4 4 4 4 4 3 3 2 3 5 5 4 3 2 2 3 2 1 1 3 4 4 5 6 6
3 3 3 3 3 3 4 4 3 3 4 4 4 4 4 3 3 4 4 4 4 4 4 4 3 3 3 4 6 6 5 3 2 3 3 3 5 5 5 6 7 5 4
2 2 3 3 3 3 3 3 3 4 3 3 3 3 3 3 3 3 3 3 3 3 3 2 2 2 2 2 2 2 2 2 2 2 3 5 7 7 6 5 5 4 3
2 2 2 2 3 3 3 3 3 4 4 3 3 3 3 2 2 1 1 1 1 1 2 2 1 1 1 2 3 2 1 1 1 2 3 3 3 3 3 4 3 3 3
3 2 2 2 2 3 3 3 3 4 4 4 4 3 3 3 3 2 0 2 1 1 1 2 2 1 1 2 3 2 2 2 2 2 3 4 4 5 4 3 3 2 2
Wind_Direction
143 140 142 142 141 138 139 139 135 132 139 133 153 155 155 143 119 128 133 133 133 105 112 53 89 46 30 22 10 8 325 314 316 315 311 287 214 196 198 198 192 176 168
146 151 145 140 137 137 142 138 136 141 160 137 149 168 155 167 143 120 120 132 135 143 157 134 73 66 36 18 1 4 343 319 350 322 312 315 326 292 220 184 194 181 173
158 158 150 148 147 150 149 143 137 138 143 136 142 129 134 125 103 120 123 148 153 151 122 121 96 79 124 18 298 25 344 317 322 346 335 333 329 318 314 251 189 173 181
164 160 158 157 157 155 147 137 133 134 135 136 139 159 156 145 143 161 146 170 162 158 141 131 127 304 66 67 282 81 310 318 319 328 302 279 324 305 322 314 312 232 182
171 166 160 160 156 151 148 141 134 135 136 144 136 137 121 130 144 141 132 174 161 155 143 141 160 163 92 35 12 30 337 326 329 325 319 307 285 262 256 295 304 300 294
170 162 159 157 154 153 151 142 138 139 144 154 146 148 130 124 126 118 136 179 158 169 144 134 156 171 207 267 287 294 319 339 338 322 317 312 302 301 289 297 296 294 306
162 160 159 158 157 156 153 147 142 145 150 154 147 142 134 139 137 136 162 209 173 155 133 119 124 237 251 262 272 267 306 305 307 297 303 311 299 301 282 272 281 291 290
165 161 160 156 157 152 149 147 144 150 153 153 153 146 152 162 131 186 285 285 344 101 114 105 106 22 358 332 327 281 277 300 295 299 312 303 300 314 296 286 284 286 289
165 162 158 156 158 151 144 143 145 150 154 155 157 153 153 150 112 125 293 30 20 105 99 86 61 27 353 344 348 318 310 307 296 304 312 306 310 305 295 295 279 254 270
167 158 147 151 152 145 139 141 146 149 151 149 158 148 139 142 137 142 145 74 75 55 82 72 48 22 10 9 2 317 310 314 309 301 317 316 317 318 317 312 301 282 262
163 154 150 145 140 142 146 149 147 149 152 154 149 128 133 132 119 114 114 90 67 85 86 72 41 20 15 13 5 325 348 347 330 332 338 327 324 328 330 324 318 309 301
151 153 158 147 148 147 144 146 151 155 156 152 142 139 138 139 136 129 108 109 119 101 95 73 39 16 28 19 359 339 352 352 349 346 342 339 343 336 325 325 322 316 300
162 161 150 141 143 143 141 143 146 150 153 152 145 134 129 136 129 116 119 127 121 98 79 90 37 12 17 1 354 349 344 347 353 357 350 347 350 347 338 329 326 313 311
167 153 145 147 147 146 147 150 149 147 150 145 142 139 141 142 142 140 137 138 121 117 92 63 44 46 23 24 13 347 337 345 353 10 7 356 352 343 333 334 343 333 327
169 154 150 149 150 150 151 154 155 152 149 154 156 154 153 149 152 146 130 127 129 126 101 66 34 30 49 39 24 347 344 345 351 354 5 355 28 16 337 338 348 339 335
169 158 150 145 151 154 160 157 159 159 156 161 164 158 157 155 151 147 137 130 126 94 79 56 50 37 46 57 41 14 351 349 349 344 355 17 39 238 280 319 329 319 308
160 156 156 152 152 155 156 159 162 162 165 164 171 165 162 164 167 166 149 143 134 114 90 66 84 74 75 62 40 14 340 337 347 358 356 345 12 7 357 336 300 291 261
160 150 145 146 152 153 157 162 168 169 172 172 174 171 168 168 163 164 156 153 148 156 164 187 142 112 92 82 38 353 320 326 331 337 351 3 12 5 355 335 330 322 327
139 143 150 153 152 157 163 167 173 174 178 179 181 179 174 169 172 172 167 168 173 181 197 201 171 144 125 141 60 356 315 322 315 317 351 12 46 29 3 341 332 330 319
124 140 147 149 154 163 169 177 184 187 189 185 182 179 178 175 179 177 174 177 178 198 212 200 193 189 170 183 194 276 306 314 311 303 66 64 64 38 13 349 330 317 318
125 133 140 147 156 166 177 186 190 192 187 180 178 178 179 176 179 173 171 177 193 204 207 212 213 205 194 187 193 199 285 310 314 310 296 77 79 15 335 317 295 291 300
137 145 147 146 152 169 184 190 190 187 182 177 180 180 177 194 188 169 178 193 202 205 208 209 215 205 190 186 191 193 215 280 308 314 345 43 344 323 309 295 282 294 301
145 147 154 156 166 181 190 193 180 173 176 177 182 178 177 182 179 183 192 199 208 217 215 210 209 198 191 181 186 198 222 248 275 314 329 305 276 280 278 265 272 282 280
145 148 166 177 176 182 185 174 170 169 175 180 178 177 180 191 182 192 207 210 215 220 224 215 219 208 175 165 171 198 220 240 247 276 291 275 263 264 272 275 261 244 253
147 160 170 169 174 173 170 173 171 163 166 179 182 187 195 187 170 179 227 235 242 242 229 250 264 260 235 197 178 191 238 270 294 290 275 277 279 270 265 263 254 240 235
158 156 174 181 173 170 167 167 166 172 172 178 186 200 196 182 191 184 190 22 308 283 243 210 225 244 193 180 181 196 242 254 243 261 276 282 281 280 276 275 267 247 243